Weather History for Roanoke, VA

Change the Weather History Date:

Sunday, October 27, 2013

  Actual Average Record
Temperature  
Mean Temperature 54 °F 54 °F  
Max Temperature 66 °F 66 °F 87 °F (1919)
Min Temperature 42 °F 43 °F 25 °F (1979)
Degree Days  
Heating Degree Days 11 11  
Month to date heating degree days 191 202  
Since 1 July heating degree days 225 251  
Cooling Degree Days 0 0  
Month to date cooling degree days 38 18  
Year to date cooling degree days 1225 1204  
Growing Degree Days 4 (Base 50)    
Moisture  
Dew Point 34 °F    
Average Humidity 53    
Maximum Humidity 76    
Minimum Humidity 29    
Precipitation  
Precipitation 0.00 in 0.09 in 1.75 in (1937)
Month to date precipitation 2.46 2.49  
Year to date precipitation 45.90 34.51  
Snow  
Snow 0.00 in - - ()
Month to date snowfall 0.0  
Since 1 July snowfall 0.0  
Since 1 September snowfall 0.0  
Snow Depth 0.00 in    
Sea Level Pressure  
Sea Level Pressure 30.08 in    
Wind  
Wind Speed 4 mph (WNW)    
Max Wind Speed 21 mph    
Max Gust Speed 29 mph    
Visibility 10 miles    
Events      
T = Trace of Precipitation, MM = Missing Value Source: NWS Daily Summary

Daily Weather History Graph

Daily Weather History Graph

Search for Another Location

Airport:

Trip Planner

Search our weather history database for the weather conditions in past years. The results will help you decide how hot, cold, wet, or windy it might be!

Date:

Astronomy

Oct. 27, 2013 Rise Set
Actual Time 7:39 AM EDT 6:27 PM EDT
Civil Twilight 7:12 AM EDT 6:54 PM EDT
Nautical Twilight 6:42 AM EDT 7:24 PM EDT
Astronomical Twilight 6:11 AM EDT 7:54 PM EDT
Moon 12:44 AM EDT (10/27) 2:27 PM EDT (10/27)
Length of Visible Light 11h 41m
Length of Day
10h 47m
Last Quarter, 44% of the Moon is Illuminated
Oct 27
Last Quarter
Nov 3
New
Nov 10
First Quarter
Nov 17
Full
Nov 25
Last Quarter

Hourly Weather History & Observations

Time (EDT) Temp. Windchill Dew Point Humidity Pressure Visibility Wind Dir Wind Speed Gust Speed Precip Events Conditions
12:54 AM 54.0 °F - 30.9 °F 41% 30.04 in 10.0 mi WNW 19.6 mph 35.7 mph N/A   Overcast
1:54 AM 52.0 °F - 32.0 °F 47% 30.04 in 10.0 mi WNW 4.6 mph - N/A   Overcast
2:54 AM 51.1 °F - 30.9 °F 46% 30.05 in 10.0 mi WNW 12.7 mph - N/A   Clear
3:54 AM 48.9 °F - 32.0 °F 52% 30.05 in 10.0 mi WNW 6.9 mph - N/A   Clear
4:54 AM 48.9 °F - 32.0 °F 52% 30.05 in 10.0 mi WNW 4.6 mph - N/A   Partly Cloudy
5:54 AM 45.0 °F 41.2 °F 33.1 °F 63% 30.07 in 10.0 mi WNW 6.9 mph - N/A   Partly Cloudy
6:54 AM 46.9 °F - 33.1 °F 59% 30.07 in 10.0 mi Calm Calm - N/A   Partly Cloudy
7:54 AM 46.0 °F - 33.1 °F 61% 30.09 in 10.0 mi Calm Calm - N/A   Partly Cloudy
8:54 AM 48.9 °F - 36.0 °F 61% 30.11 in 10.0 mi Calm Calm - N/A   Clear
9:54 AM 52.0 °F - 36.0 °F 54% 30.11 in 10.0 mi Calm Calm - N/A   Clear
10:54 AM 54.0 °F - 37.0 °F 53% 30.12 in 10.0 mi WSW 4.6 mph - N/A   Mostly Cloudy
11:54 AM 57.0 °F - 37.0 °F 47% 30.11 in 10.0 mi Variable 5.8 mph - N/A   Partly Cloudy
12:54 PM 61.0 °F - 35.1 °F 38% 30.09 in 10.0 mi West 11.5 mph - N/A   Partly Cloudy
1:54 PM 63.0 °F - 35.1 °F 35% 30.06 in 10.0 mi West 9.2 mph - N/A   Partly Cloudy
2:54 PM 63.0 °F - 34.0 °F 34% 30.04 in 10.0 mi Variable 3.5 mph - N/A   Clear
3:54 PM 66.0 °F - 33.1 °F 29% 30.03 in 10.0 mi West 9.2 mph - N/A   Clear
4:54 PM 66.0 °F - 33.1 °F 29% 30.03 in 10.0 mi West 4.6 mph - N/A   Clear
5:54 PM 63.0 °F - 33.1 °F 33% 30.05 in 10.0 mi Variable 6.9 mph - N/A   Clear
6:54 PM 60.1 °F - 33.1 °F 36% 30.06 in 10.0 mi Calm Calm - N/A   Clear
7:54 PM 55.9 °F - 35.1 °F 45% 30.09 in 10.0 mi Calm Calm - N/A   Clear
8:54 PM 51.1 °F - 36.0 °F 56% 30.11 in 10.0 mi Calm Calm - N/A   Clear
9:54 PM 48.9 °F - 37.9 °F 66% 30.12 in 10.0 mi NNE 5.8 mph - N/A   Clear
10:54 PM 45.0 °F 43.5 °F 37.0 °F 74% 30.14 in 10.0 mi NW 3.5 mph - N/A   Clear
11:54 PM 45.0 °F - 37.0 °F 74% 30.14 in 10.0 mi Calm Calm - N/A   Clear